TimeEDT,TemperatureF,Dew PointF,Humidity,Sea Level PressureIn,VisibilityMPH,Wind Direction,Wind SpeedMPH,Gust SpeedMPH,PrecipitationIn,Events,Conditions,WindDirDegrees,DateUTC
12:16 AM,69.8,64.4,83,30.04,10.0,North,12.7,-,N/A,,Overcast,350,2013-03-13 04:16:00
12:53 AM,68.0,63.0,84,30.04,10.0,North,11.5,-,N/A,,Overcast,350,2013-03-13 04:53:00
1:53 AM,68.0,63.0,84,30.04,10.0,North,12.7,-,N/A,,Overcast,350,2013-03-13 05:53:00
2:53 AM,68.0,63.0,84,30.02,10.0,North,13.8,-,N/A,,Overcast,350,2013-03-13 06:53:00
3:33 AM,68.0,60.8,78,30.01,10.0,North,13.8,-,N/A,,Overcast,350,2013-03-13 07:33:00
3:53 AM,68.0,62.1,81,30.01,10.0,North,16.1,-,N/A,,Overcast,350,2013-03-13 07:53:00
4:53 AM,66.9,55.9,68,30.01,10.0,North,16.1,-,N/A,,Overcast,350,2013-03-13 08:53:00
5:53 AM,66.9,55.0,66,30.03,10.0,North,15.0,-,N/A,,Overcast,360,2013-03-13 09:53:00
6:53 AM,66.9,55.0,66,30.05,9.0,North,17.3,-,N/A,,Overcast,360,2013-03-13 10:53:00
7:53 AM,64.9,55.9,73,30.06,10.0,North,18.4,24.2,N/A,,Overcast,360,2013-03-13 11:53:00
8:53 AM,66.0,57.0,73,30.09,10.0,North,17.3,27.6,N/A,,Mostly Cloudy,10,2013-03-13 12:53:00
9:53 AM,66.9,55.0,66,30.12,10.0,North,17.3,-,N/A,,Mostly Cloudy,10,2013-03-13 13:53:00
10:53 AM,68.0,53.1,59,30.13,10.0,North,19.6,25.3,N/A,,Mostly Cloudy,10,2013-03-13 14:53:00
11:53 AM,69.1,50.0,51,30.14,10.0,North,21.9,26.5,N/A,,Mostly Cloudy,360,2013-03-13 15:53:00
12:53 PM,70.0,48.9,47,30.14,10.0,North,17.3,23.0,N/A,,Mostly Cloudy,10,2013-03-13 16:53:00
1:53 PM,71.1,48.9,45,30.12,10.0,North,17.3,25.3,N/A,,Mostly Cloudy,360,2013-03-13 17:53:00
2:53 PM,73.0,50.0,44,30.09,10.0,North,18.4,25.3,N/A,,Mostly Cloudy,350,2013-03-13 18:53:00
3:53 PM,70.0,48.9,47,30.07,10.0,North,18.4,-,N/A,,Mostly Cloudy,360,2013-03-13 19:53:00
4:53 PM,71.1,52.0,51,30.07,10.0,North,19.6,24.2,N/A,,Mostly Cloudy,350,2013-03-13 20:53:00
5:53 PM,70.0,53.1,55,30.07,10.0,North,16.1,24.2,N/A,,Mostly Cloudy,350,2013-03-13 21:53:00
6:53 PM,69.1,54.0,58,30.08,10.0,North,16.1,-,N/A,,Mostly Cloudy,350,2013-03-13 22:53:00
7:53 PM,68.0,55.9,65,30.09,10.0,NNW,17.3,-,N/A,,Mostly Cloudy,340,2013-03-13 23:53:00
8:53 PM,68.0,55.9,65,30.11,10.0,North,15.0,21.9,N/A,,Mostly Cloudy,350,2013-03-14 00:53:00
9:53 PM,68.0,55.9,65,30.12,10.0,North,17.3,-,N/A,,Mostly Cloudy,350,2013-03-14 01:53:00
10:53 PM,68.0,55.0,63,30.14,10.0,NNW,16.1,-,N/A,,Clear,340,2013-03-14 02:53:00
11:53 PM,66.9,55.9,68,30.15,10.0,NNW,15.0,23.0,N/A,,Clear,340,2013-03-14 03:53:00